RH
3 3 3 4 3 3 6 11 14 13 13 14 16 17 18 18 17 16 17 19 17 16 16 17 17 16 17 18 18 19 19 18 13 10 10 14 15 13 11 8 7 7 6 6 5 6 5 5 5 7 12 14 14 15 16 17 15 20 36 33 33 50 44 42 48 38 36 38 43 39 38 54 49 39 39 41 45 45 46 42 40 40 34 32 31 29 30 30
3 3 4 4 3 4 10 14 16 16 15 15 17 17 17 18 16 15 18 18 14 13 13 14 16 17 19 18 19 19 20 20 14 11 15 19 17 15 15 10 10 10 9 9 7 6 6 8 8 9 11 13 16 16 18 19 17 33 45 33 45 62 46 39 42 38 36 33 40 39 36 48 46 39 40 43 46 47 51 44 39 40 33 29 29 30 33 33
3 4 4 3 3 7 12 16 17 17 16 17 17 18 18 17 15 16 18 15 12 13 14 15 17 18 19 19 21 21 21 20 15 15 19 19 18 16 15 13 12 13 13 12 10 10 10 13 13 12 12 13 18 18 19 20 20 28 32 35 54 62 45 32 32 31 29 32 41 38 39 47 42 38 41 47 49 49 53 44 38 38 27 22 24 26 31 34
3 4 3 3 5 9 13 16 17 17 18 19 20 21 20 19 17 18 18 13 11 14 14 16 18 19 20 20 23 24 22 20 18 20 21 19 18 16 16 15 14 14 16 14 12 13 14 15 15 14 14 16 19 19 23 24 24 26 30 44 51 46 39 27 24 28 28 33 38 37 42 42 36 39 41 44 49 49 43 31 31 31 24 24 26 27 29 31
4 4 3 4 7 10 14 16 18 20 22 22 23 23 21 21 19 19 18 11 11 14 14 18 19 19 20 20 24 23 19 20 21 23 22 21 19 17 18 16 15 16 15 14 14 13 14 16 14 16 15 17 22 22 27 31 29 31 36 43 41 37 35 25 24 29 29 33 36 38 40 36 35 39 38 43 53 46 28 22 27 28 28 30 29 30 31 31
4 3 4 7 10 13 16 18 22 24 25 25 24 24 23 22 20 20 18 11 11 13 15 19 19 20 20 19 23 21 17 21 22 23 24 23 22 19 18 17 17 16 15 16 16 14 15 16 15 19 19 23 32 28 29 36 35 36 42 41 34 34 34 27 27 29 30 34 36 37 36 34 37 39 37 41 46 33 20 24 28 27 28 28 27 27 28 30
4 5 8 12 15 18 21 24 26 25 25 25 24 23 22 21 20 19 17 14 13 15 18 20 20 21 18 17 22 20 19 23 24 24 24 24 24 21 19 18 17 16 16 17 16 15 15 16 18 21 25 30 36 34 33 35 35 41 49 48 37 33 33 30 30 30 32 35 34 34 36 36 39 41 40 36 30 23 23 25 25 25 26 26 26 25 25 27
8 12 16 18 21 23 25 26 26 25 25 24 23 23 22 22 21 17 17 17 16 17 18 19 22 22 18 17 21 21 23 26 25 24 24 24 24 22 20 18 17 16 16 17 15 15 15 17 20 22 29 33 33 36 36 32 37 47 49 45 38 35 35 33 32 30 32 35 34 36 40 37 34 38 39 32 23 22 25 25 24 26 26 27 27 27 28 28
17 20 21 22 24 25 26 25 24 25 24 24 24 23 22 21 18 16 16 17 16 18 19 21 24 21 19 19 20 23 26 25 23 22 21 22 22 22 21 19 18 16 15 16 15 14 16 18 21 23 29 33 34 38 36 29 34 43 43 40 42 42 38 33 31 31 33 34 35 39 42 37 30 34 37 27 22 26 27 26 27 27 26 27 27 27 28 28
21 21 21 23 25 26 25 24 24 24 24 25 24 24 23 19 17 17 16 15 17 19 21 24 24 21 20 18 20 25 25 22 21 20 18 19 20 21 22 20 19 17 16 17 17 17 17 18 21 24 27 32 34 38 38 30 31 42 44 43 47 42 33 32 32 33 33 32 34 41 44 39 32 35 37 26 24 30 28 27 28 28 28 27 27 27 27 27
21 21 22 25 25 25 24 24 24 24 24 24 23 23 21 16 14 15 14 16 19 19 22 25 25 22 20 18 21 25 22 21 21 18 18 18 17 19 20 20 19 18 18 20 22 21 20 20 22 22 27 31 33 37 37 33 37 46 43 43 50 42 32 34 36 35 35 33 33 41 44 40 38 40 37 27 28 32 29 30 31 31 32 29 29 29 28 28
21 22 24 25 24 24 23 24 24 24 24 23 23 22 18 15 13 14 16 18 20 20 22 26 26 22 21 19 21 24 22 22 22 18 18 18 15 17 18 20 21 20 22 23 24 24 23 22 22 24 26 29 34 35 34 38 44 44 40 45 55 54 41 36 41 40 36 35 33 38 41 37 41 41 31 28 31 31 30 34 35 33 32 30 29 28 28 28
21 23 24 24 23 23 23 23 24 24 23 22 22 21 19 18 16 17 19 21 23 23 25 27 24 20 19 20 21 22 22 21 20 17 17 17 16 17 17 19 21 22 23 22 23 24 24 22 23 24 24 30 36 33 32 34 32 36 46 55 59 55 40 33 47 47 36 37 36 37 43 38 39 38 29 32 32 28 32 34 33 31 28 26 24 24 24 24
23 24 24 24 23 23 23 23 23 23 23 22 21 21 21 20 19 20 21 24 25 25 26 26 23 19 17 21 20 18 19 19 17 14 16 18 19 19 18 19 22 23 23 23 23 23 26 24 19 21 25 30 33 36 49 49 40 47 56 68 72 53 35 36 53 57 44 43 37 35 52 51 39 35 29 30 29 27 31 31 30 28 25 23 20 20 20 20
24 23 23 23 22 23 22 22 22 23 22 21 21 21 21 20 19 20 22 23 22 21 22 22 23 20 18 19 18 16 17 17 17 15 15 18 21 21 21 21 22 23 23 24 23 23 28 23 17 24 30 30 36 53 70 67 70 71 52 58 75 59 47 47 57 67 57 49 42 38 61 64 46 37 30 28 29 26 27 28 28 27 24 21 19 19 20 21
23 22 22 22 22 22 22 22 22 22 22 21 21 21 20 20 20 21 21 19 19 20 19 19 20 18 18 18 16 15 16 17 21 20 18 19 20 21 23 24 22 22 23 23 23 24 24 22 23 30 35 40 53 71 79 71 78 82 57 52 66 63 59 50 50 67 63 55 52 46 58 64 47 36 29 27 28 25 26 27 26 27 25 23 22 23 24 23
22 22 22 22 22 22 21 21 21 21 21 20 21 20 19 19 19 19 18 18 20 21 20 18 17 18 17 17 17 16 17 18 19 21 22 20 22 23 24 23 19 20 22 18 18 20 19 21 28 31 40 56 63 70 74 65 65 76 74 69 71 69 67 57 47 57 61 57 58 56 59 60 48 41 34 28 28 26 26 27 27 27 25 24 25 24 25 25
22 21 22 22 22 21 21 20 20 20 19 20 21 19 18 17 18 18 18 19 18 19 21 18 17 23 20 18 22 18 16 17 17 20 21 20 22 24 22 19 18 21 21 15 13 18 17 21 31 37 47 61 69 72 63 49 52 68 75 78 81 76 69 65 54 58 65 59 59 60 58 56 49 45 38 26 27 28 26 28 28 26 25 25 26 26 27 27
21 21 21 21 21 20 20 20 20 19 19 20 20 19 18 17 15 16 16 17 18 21 25 21 22 28 23 21 22 16 13 15 16 17 19 20 20 21 22 20 19 18 20 21 20 25 28 33 47 55 57 65 74 77 64 52 57 66 72 77 83 79 68 61 57 66 73 64 63 63 58 59 52 48 43 29 26 28 25 27 27 26 27 25 26 29 29 29
21 21 20 21 20 19 20 22 22 21 20 19 20 22 22 21 23 23 19 18 19 22 25 24 24 25 23 24 20 13 12 13 14 16 17 18 16 17 19 19 19 21 36 46 34 29 36 47 62 62 61 69 73 76 74 71 70 73 81 84 84 82 68 49 51 71 73 63 72 76 68 64 55 50 48 36 30 30 28 28 27 27 29 29 30 30 31 32
21 19 20 20 19 19 21 23 22 20 19 18 19 23 22 23 28 27 22 22 23 21 21 21 23 23 22 24 21 15 11 11 12 14 17 16 16 18 16 22 29 29 49 62 43 32 35 46 59 59 63 72 77 84 85 83 83 81 82 78 71 70 59 41 49 72 67 57 74 81 67 54 46 48 49 46 39 31 30 31 29 29 30 31 31 33 37 38
19 18 19 18 18 21 22 21 19 16 16 16 15 19 21 22 24 24 22 22 22 21 20 18 18 21 21 21 22 18 13 15 14 12 16 15 15 22 22 34 46 42 52 62 51 46 44 45 56 64 74 80 84 89 83 80 86 80 73 68 59 56 58 54 58 71 66 60 74 79 66 51 47 54 55 56 49 32 28 31 30 31 32 34 39 48 53 49
17 18 19 18 20 21 20 18 15 16 17 15 15 15 17 19 22 24 20 18 18 18 19 18 16 18 20 19 21 20 16 20 21 14 16 17 17 26 30 41 61 63 63 59 46 40 37 41 58 68 70 67 68 78 77 71 71 69 60 53 53 55 55 53 56 67 68 65 73 74 66 57 52 51 45 44 44 33 29 31 32 38 42 46 52 58 63 61
18 19 17 19 21 19 18 16 15 18 16 16 16 15 17 18 20 22 18 19 19 17 18 18 17 17 19 20 20 23 21 20 24 17 15 21 22 29 33 44 63 66 67 68 55 43 38 45 62 70 66 58 54 68 75 63 58 68 63 45 46 58 58 55 60 69 68 67 72 63 48 48 48 38 30 33 37 33 35 41 43 50 53 52 54 56 58 57
18 18 19 20 20 17 17 15 16 17 16 18 16 15 19 17 19 19 19 28 23 15 19 17 16 18 17 19 19 22 22 18 21 19 17 21 23 30 35 39 49 52 63 72 60 50 48 49 55 57 63 65 54 57 65 61 60 64 63 51 45 58 67 70 76 70 55 51 58 51 32 37 46 33 33 45 45 39 43 51 54 57 60 56 58 59 57 55
18 18 19 19 17 17 16 16 18 16 17 19 13 15 18 16 23 21 26 51 40 14 17 18 15 18 17 16 17 21 24 21 19 17 17 20 21 28 33 36 42 47 62 65 46 41 47 51 57 54 57 61 49 47 55 63 63 45 47 59 58 66 71 78 81 58 40 37 47 57 38 31 36 24 33 51 49 48 52 56 59 61 64 63 63 64 62 61
17 18 18 17 17 16 16 17 17 17 18 15 12 16 16 16 21 15 27 60 47 14 16 20 15 16 17 17 16 21 25 21 16 15 17 20 18 20 30 42 43 42 58 62 36 28 40 52 66 65 58 54 43 43 52 62 57 36 43 63 66 67 66 79 81 57 57 54 48 65 50 34 44 32 36 50 49 58 62 61 64 62 64 64 62 63 61 60
17 17 16 17 16 15 18 18 17 18 16 13 13 13 16 19 16 19 37 42 25 14 19 19 15 14 15 16 16 21 24 21 18 16 16 19 17 15 27 43 43 38 49 50 26 24 45 54 58 61 55 47 38 39 54 63 56 49 58 66 71 76 74 88 89 79 91 61 30 56 50 32 45 36 35 50 55 68 71 67 68 64 64 63 60 60 57 56
16 16 16 16 16 16 18 19 19 18 15 14 13 13 20 20 13 31 50 31 11 17 20 16 17 15 15 18 19 19 21 23 24 19 14 18 19 17 24 34 38 39 40 40 28 27 48 55 53 57 51 43 45 51 64 64 52 55 64 60 69 84 85 92 88 84 92 52 21 50 49 31 40 41 48 61 67 78 77 71 69 63 62 60 58 58 56 54
16 17 16 16 16 16 16 18 19 18 16 13 13 18 17 20 35 46 38 21 15 20 19 17 20 23 29 35 31 25 26 28 26 20 15 18 19 19 23 24 30 42 41 42 40 32 44 58 62 61 49 46 58 63 70 71 59 57 58 47 46 57 71 90 89 69 56 39 33 49 48 41 46 57 71 71 69 77 78 75 69 62 60 57 55 55 54 54
15 16 16 16 16 16 17 17 17 15 14 12 16 21 11 26 65 59 24 14 19 22 23 26 37 43 49 49 35 31 40 36 27 29 30 31 30 29 31 30 34 46 46 42 42 38 44 51 52 51 46 53 61 49 54 75 71 56 50 40 30 34 53 79 85 61 35 29 43 58 60 53 53 64 73 69 67 72 76 76 70 65 60 55 53 51 52 53
13 15 16 17 15 17 16 14 15 11 10 16 20 20 21 36 50 39 28 23 16 25 32 34 49 56 56 52 36 38 48 39 34 41 47 52 54 50 50 51 46 38 34 35 36 38 38 33 33 40 43 50 50 35 40 64 62 49 50 46 40 46 54 60 63 58 45 34 40 55 58 50 52 62 66 68 71 69 68 68 64 62 58 52 51 50 51 51
9 11 14 15 13 14 11 10 11 8 12 20 16 21 41 44 25 21 41 36 17 29 40 45 58 59 52 44 36 46 46 32 34 41 45 55 61 59 58 62 56 34 24 31 35 34 34 32 33 34 34 40 41 33 36 49 51 52 55 47 48 58 60 62 63 56 47 38 35 40 46 51 52 57 68 71 66 63 60 57 55 53 53 51 48 48 50 50
6 7 9 9 8 8 8 9 10 11 18 18 19 39 45 27 18 25 38 44 42 45 49 54 56 45 40 36 37 47 39 27 36 44 48 54 56 60 58 56 59 50 40 37 34 33 32 29 28 25 24 33 43 42 42 48 53 63 63 52 53 56 57 69 70 52 43 48 49 41 44 58 52 50 68 67 57 58 53 50 51 48 49 50 47 49 51 51
6 7 7 7 9 9 11 14 13 15 18 13 29 56 41 14 25 35 34 47 56 52 50 51 47 41 40 43 47 44 28 27 42 48 51 54 54 56 56 56 59 59 54 41 31 37 33 22 25 30 30 39 47 48 53 50 44 58 67 55 53 54 55 68 69 55 52 66 78 68 57 63 58 59 71 63 55 56 49 49 51 47 49 50 49 54 53 54
8 9 10 12 13 13 16 17 16 18 17 15 30 47 38 24 32 39 41 48 50 51 49 38 39 48 46 47 55 47 29 30 40 41 41 51 54 50 53 61 60 58 57 45 35 39 31 21 30 35 32 43 51 49 55 46 29 44 55 42 45 57 59 67 70 64 62 67 77 71 57 54 59 70 76 66 60 57 51 51 50 49 53 51 52 57 55 54
12 12 12 13 12 14 16 14 15 17 10 17 36 41 41 40 38 45 54 53 52 56 52 32 26 36 39 42 50 48 39 34 35 32 30 40 45 42 51 58 52 55 59 49 40 40 37 36 42 37 27 35 44 45 53 52 42 47 46 37 47 62 68 75 75 70 70 70 66 56 49 44 47 63 73 69 66 61 55 53 53 54 55 53 56 55 50 48
10 10 9 12 12 12 15 13 15 14 7 29 61 57 46 45 43 50 58 57 57 58 52 36 22 26 37 38 40 50 51 39 38 40 33 32 32 35 50 51 45 56 60 51 49 49 46 43 42 41 36 34 35 35 39 49 56 50 41 41 46 51 62 70 68 65 67 73 71 61 51 47 55 74 81 75 69 64 60 56 56 57 56 58 58 48 40 37
11 10 9 13 12 8 14 14 8 7 11 41 71 61 48 52 51 54 60 59 58 56 49 39 27 29 40 39 40 55 57 41 39 40 31 26 25 31 47 48 43 52 56 55 62 61 49 38 35 39 39 31 27 27 25 34 52 55 48 51 52 51 57 58 61 69 70 72 79 74 56 54 77 89 80 74 68 63 64 61 57 57 56 57 50 38 35 33
14 11 9 13 13 10 11 8 6 20 35 53 64 54 48 55 52 53 61 62 55 45 40 43 40 36 41 45 45 52 59 55 50 42 31 29 27 32 51 58 54 57 56 56 64 63 50 39 34 37 38 30 23 24 22 22 38 49 49 56 63 65 66 63 62 67 71 72 82 87 72 62 78 81 68 69 66 59 63 61 52 48 46 44 38 34 35 34
9 12 11 9 14 13 7 10 28 53 67 65 59 55 53 52 45 46 55 58 53 42 39 48 51 43 43 45 42 49 61 64 58 46 36 34 27 27 50 66 68 69 58 51 60 60 52 49 48 47 41 28 19 22 24 25 32 42 49 59 68 69 68 72 72 71 78 78 78 91 90 70 70 72 63 62 60 57 60 53 44 41 37 36 36 35 36 36
9 18 15 7 11 8 5 27 52 66 74 65 52 54 59 52 41 39 44 45 44 41 40 47 54 55 54 49 48 59 62 54 52 43 33 34 29 32 55 67 72 79 64 52 60 60 56 62 61 54 42 26 24 34 41 44 44 50 62 69 73 78 77 83 87 82 85 79 69 84 92 76 72 77 69 62 59 58 55 45 40 40 36 36 36 34 34 36
10 16 12 7 10 4 7 35 53 59 67 61 49 51 53 47 39 37 43 43 41 38 37 44 48 46 49 53 56 58 47 37 40 37 33 41 41 48 65 63 64 78 66 50 55 54 53 60 53 44 40 30 26 35 49 57 48 49 69 76 77 83 83 87 89 85 90 90 82 92 93 72 69 77 68 58 58 55 48 41 38 37 35 35 34 34 35 38
8 10 9 9 7 4 16 37 47 57 62 49 44 48 45 43 43 44 48 50 51 47 42 46 46 38 46 61 63 57 43 29 27 32 37 44 47 57 70 64 64 74 62 50 58 52 43 48 48 42 40 34 26 28 39 46 42 51 74 82 78 78 79 86 90 90 94 87 80 98 99 67 53 58 49 46 54 51 40 35 33 34 36 35 36 38 39 42
6 7 6 7 5 6 22 33 39 59 67 52 47 50 46 45 44 44 49 49 51 51 42 40 44 47 56 60 59 63 56 31 22 35 44 43 50 63 70 66 66 70 67 65 69 60 45 47 50 41 35 40 44 40 37 39 41 54 75 83 82 83 83 83 88 96 97 82 78 96 95 65 46 43 41 47 55 46 33 32 32 33 37 37 39 42 43 46
8 12 12 12 8 9 20 22 22 44 61 59 52 43 39 42 36 36 43 42 43 45 40 40 44 46 52 55 57 65 61 44 36 46 52 49 53 60 66 70 67 64 69 69 67 69 67 64 60 46 34 41 48 39 35 44 50 59 77 84 83 90 89 80 85 94 91 89 90 83 73 69 60 47 46 54 51 38 33 35 35 36 39 40 43 45 47 50
14 24 26 20 10 14 27 26 23 34 43 48 49 37 37 47 39 32 35 35 39 41 39 45 50 46 49 55 53 47 46 46 41 39 49 60 62 58 61 72 71 63 68 70 66 69 65 55 60 61 47 43 46 39 38 52 62 72 84 84 80 87 88 83 88 86 80 94 95 68 60 74 64 47 50 53 43 37 37 37 39 41 42 43 47 49 51 53
17 25 26 21 17 27 39 33 31 41 44 50 58 49 50 60 49 38 38 34 35 36 31 36 48 57 66 63 47 34 37 42 38 37 48 62 70 66 60 65 67 62 66 69 64 62 55 47 55 66 63 56 55 52 50 58 71 81 83 78 77 82 83 84 84 75 75 92 89 64 61 65 52 45 51 45 37 38 40 40 41 43 45 48 51 52 54 53
14 18 20 20 23 33 40 33 28 36 45 57 64 55 54 59 47 45 52 43 34 36 30 26 37 59 80 75 49 34 39 40 36 43 54 58 62 64 55 51 54 55 59 67 65 54 52 62 73 79 77 66 58 57 56 62 78 85 79 74 75 76 75 76 74 68 69 73 66 57 56 49 41 45 46 38 36 39 40 42 44 46 49 51 53 54 55 54
9 12 14 18 24 28 31 29 27 38 50 55 51 46 53 56 43 43 52 42 32 34 34 34 42 61 84 83 59 42 38 34 32 42 54 59 65 68 54 44 54 63 65 76 77 55 43 62 84 91 80 58 49 55 57 65 83 89 80 76 74 71 71 70 68 66 66 63 54 49 49 44 39 41 40 36 38 40 42 46 48 49 51 53 55 56 54 55
5 6 6 14 28 31 27 25 35 55 62 52 44 43 46 48 44 43 44 41 37 37 39 44 51 65 79 75 61 51 45 43 44 47 50 53 57 58 49 46 62 73 76 86 89 75 65 69 81 92 82 54 45 53 58 70 89 94 90 86 78 73 72 68 64 59 57 59 54 48 50 51 43 39 40 40 41 44 47 49 50 52 53 55 56 55 55 59
5 6 3 10 26 33 32 34 44 52 45 39 48 51 45 47 52 43 30 31 40 43 45 49 51 60 67 53 40 45 52 56 59 60 60 60 59 57 54 60 67 69 77 90 94 93 90 79 79 92 83 57 50 57 59 64 70 73 81 84 75 69 67 61 56 49 43 44 47 46 50 49 42 41 45 46 46 48 50 51 53 55 56 56 55 56 59 62
Wind_Speed
6 7 8 7 4 3 3 4 4 3 3 3 1 1 3 5 7 9 9 10 11 10 10 9 8 8 8 8 8 8 8 9 10 9 10 12 13 11 10 9 8 8 8 8 8 8 7 6 6 5 3 2 2 1 0 1 3 3 3 2 2 3 4 5 6 5 3 4 5 5 5 4 7 8 7 9 10 14 17 22 22 21 25 28 29 28 28 27
6 8 8 6 4 4 4 5 4 3 3 2 1 3 4 6 7 7 8 9 9 9 10 10 9 9 9 9 9 10 8 7 9 11 14 15 14 13 11 9 7 7 8 8 8 7 5 4 3 3 2 1 1 1 2 2 3 3 3 2 3 5 4 4 5 5 3 6 8 10 9 4 8 8 6 5 8 9 10 19 20 20 26 26 26 28 31 32
7 8 7 5 4 4 5 5 4 3 2 2 3 4 6 6 6 6 7 8 7 8 10 10 9 8 9 10 10 12 7 3 9 14 14 15 14 14 12 9 6 7 8 9 9 7 6 5 5 4 2 1 2 1 3 2 1 1 2 1 5 5 4 6 7 8 10 10 9 10 9 6 9 8 5 3 9 10 8 15 15 16 23 24 23 23 26 30
8 7 5 4 5 5 5 4 3 3 3 3 4 5 7 6 5 4 6 6 5 6 9 9 9 8 9 10 10 13 7 2 10 15 13 15 15 14 13 8 6 6 8 9 8 7 6 6 6 5 3 2 3 2 2 3 2 1 3 3 5 3 3 7 8 10 11 10 9 10 9 9 11 8 6 4 6 9 12 19 16 17 23 26 27 24 22 25
7 5 5 5 5 5 4 4 3 3 4 5 6 7 7 6 4 3 4 4 4 5 9 9 8 9 9 10 11 13 7 1 8 13 12 14 14 14 12 8 6 6 8 9 9 7 5 7 7 6 5 3 4 3 2 4 3 1 3 4 4 3 3 10 9 9 10 10 10 10 8 9 10 7 9 6 4 9 18 23 20 23 28 30 32 29 25 25
6 5 6 6 5 5 4 4 4 5 6 6 7 7 7 7 4 3 3 3 3 4 8 7 8 10 10 10 10 11 7 3 7 11 11 14 14 14 13 10 8 7 8 8 9 7 5 7 7 5 5 4 3 2 1 3 1 2 4 3 4 3 5 10 11 11 13 12 11 8 8 10 8 9 10 9 14 21 29 30 29 32 31 29 29 27 26 26
6 7 7 6 5 5 5 6 6 7 7 7 7 7 7 6 3 2 2 2 2 4 6 7 9 10 11 9 7 11 12 8 9 11 11 12 13 14 13 12 11 8 8 7 7 5 5 8 8 6 4 4 2 1 2 4 0 2 3 4 4 5 7 12 15 17 18 15 15 12 11 11 8 7 8 14 25 30 31 29 29 29 27 25 24 23 23 23
8 8 7 6 6 6 7 7 7 7 7 7 7 7 6 5 3 2 3 3 3 5 6 8 10 11 12 7 5 11 15 11 11 11 11 11 11 12 12 12 10 8 8 8 8 6 5 8 8 6 3 1 0 2 2 5 1 4 3 5 4 7 10 13 16 17 18 16 16 13 10 13 12 8 9 19 27 25 25 26 27 28 29 27 25 24 22 20
9 8 7 6 6 7 8 8 8 8 7 7 6 7 6 5 4 4 5 5 5 6 7 9 10 12 13 6 5 9 11 11 12 13 13 11 10 10 10 10 10 9 9 11 11 7 6 7 6 4 1 1 2 0 2 3 3 3 3 6 7 11 11 15 16 16 17 14 12 9 8 13 11 6 9 16 20 22 27 28 26 26 25 22 20 20 19 18
8 7 6 6 7 8 8 8 8 7 6 6 6 6 5 5 5 6 6 4 6 7 7 10 9 11 14 10 9 8 9 12 15 15 14 11 9 7 7 9 10 10 10 12 12 10 8 6 6 4 1 1 1 2 1 2 3 4 7 8 9 11 9 16 15 16 19 10 9 8 8 12 8 2 5 14 21 26 32 28 22 19 18 17 14 13 13 14
7 6 6 7 9 9 8 7 7 6 6 5 5 6 5 6 5 5 4 4 6 6 7 10 9 8 11 16 16 9 10 14 16 17 16 12 9 6 6 8 9 9 11 13 13 13 11 9 9 6 1 3 3 2 0 3 5 5 8 8 10 9 7 18 14 15 19 6 12 13 7 8 3 3 4 16 27 29 29 23 20 19 16 16 14 13 13 12
7 7 8 9 9 8 7 7 7 7 6 5 5 6 6 5 4 3 4 5 5 7 7 9 9 7 7 16 19 13 12 15 16 18 15 11 10 7 6 7 7 9 10 11 13 13 12 10 11 9 6 4 2 2 1 7 7 4 8 4 10 9 6 17 14 15 15 4 17 16 5 7 1 3 7 19 31 27 21 20 21 22 21 22 22 22 22 20
7 8 9 9 8 8 8 8 8 7 5 5 5 6 5 4 4 4 4 5 7 7 7 7 7 6 6 10 16 16 14 16 17 15 10 8 9 7 6 5 5 7 8 10 12 12 12 12 9 10 14 10 1 2 3 7 7 3 6 3 6 8 4 12 14 15 12 5 19 14 2 7 6 8 13 21 28 22 19 20 21 23 24 25 26 27 28 28
8 9 9 8 8 8 8 8 7 6 5 4 4 4 4 3 3 4 5 6 8 7 7 7 5 5 6 6 13 18 15 15 15 10 6 5 6 6 6 5 4 6 7 9 11 11 11 10 13 13 16 16 4 1 4 6 7 4 4 3 4 5 5 10 11 12 10 6 17 12 1 7 10 14 19 24 23 17 17 17 18 21 23 25 25 27 28 28
10 10 9 8 8 7 7 7 6 5 4 4 4 4 3 2 2 3 6 8 9 10 7 6 5 4 5 7 11 16 17 16 16 12 8 6 6 6 5 5 6 7 6 8 9 10 9 7 15 16 12 18 11 3 4 5 5 4 4 4 4 3 6 11 6 8 8 7 12 10 2 7 8 14 23 23 18 14 14 13 16 19 21 23 24 25 26 26
10 9 8 7 6 6 6 6 6 5 4 5 5 5 4 3 2 2 4 6 8 10 10 7 6 6 6 6 8 14 19 21 21 16 10 9 9 9 6 4 7 8 6 8 8 7 9 7 12 15 12 16 12 4 4 5 5 4 4 3 5 4 6 10 3 6 8 5 7 7 2 6 6 15 24 20 15 14 11 12 14 16 18 21 23 24 25 25
10 9 8 6 5 5 5 6 5 4 6 9 10 11 10 7 4 1 2 4 4 6 11 8 5 7 9 10 10 15 19 21 22 17 10 10 11 11 7 3 5 7 7 10 10 7 8 8 7 8 12 10 5 3 5 5 5 4 4 2 4 3 3 6 5 7 12 4 5 3 3 6 8 15 22 16 13 14 10 11 11 12 15 19 22 25 26 27
10 8 6 5 4 4 6 6 6 6 10 13 15 18 20 19 15 9 3 2 3 4 8 10 5 5 7 14 16 15 16 20 22 18 11 9 11 11 8 7 5 7 7 9 12 12 9 8 6 3 6 7 5 7 6 0 2 3 4 3 4 3 3 5 6 7 11 7 6 5 2 8 11 13 17 14 12 12 9 9 8 10 14 18 22 25 26 27
8 7 5 4 3 4 6 7 7 9 9 10 11 14 17 19 22 23 21 19 17 9 4 10 10 4 1 14 20 15 12 20 23 18 11 8 10 11 10 11 10 8 7 7 10 14 9 6 7 4 5 7 5 3 3 4 4 5 4 2 4 5 5 7 7 4 7 8 7 5 4 9 12 13 13 14 13 10 9 8 8 10 14 18 22 24 25 26
7 5 3 3 3 4 6 7 7 6 5 5 5 4 4 7 10 16 24 29 26 16 9 11 12 6 2 12 23 18 12 19 25 21 14 10 7 9 11 10 11 13 9 1 4 9 7 6 6 3 4 6 5 3 4 3 3 3 1 2 5 4 6 8 6 5 5 5 5 3 6 10 11 11 12 14 13 9 9 10 10 11 14 17 20 23 25 26
5 4 3 3 3 5 7 7 7 7 6 5 4 5 4 3 4 6 14 21 19 16 17 18 16 13 9 12 21 22 15 17 26 26 19 15 8 6 11 9 8 11 6 2 1 3 6 8 4 5 6 5 4 2 1 1 2 1 1 3 5 3 7 10 4 3 6 4 4 4 9 13 10 8 11 11 9 6 8 10 12 13 15 18 21 25 28 28
5 4 4 4 4 7 8 9 10 10 9 9 9 10 10 9 8 8 10 11 13 16 16 20 22 20 16 12 15 22 23 21 24 28 24 19 14 8 9 11 7 4 5 3 2 4 7 5 6 6 3 1 2 3 3 2 4 2 1 1 5 3 6 9 3 1 4 2 5 5 7 12 11 8 10 8 6 7 10 9 12 16 19 23 28 32 35 34
5 4 5 6 8 10 10 11 11 10 9 9 10 10 9 8 6 6 7 7 10 16 17 19 23 24 22 16 14 18 24 21 19 27 28 20 16 12 8 8 6 3 6 6 5 4 5 3 5 4 3 3 2 5 6 4 3 1 1 2 5 4 3 5 3 5 6 0 4 7 6 8 8 6 7 6 5 10 16 17 20 26 28 30 33 36 39 40
6 6 7 9 11 12 12 11 8 7 8 9 9 8 6 5 3 4 4 4 5 13 17 16 19 24 22 19 17 12 15 18 18 25 27 20 14 9 6 5 4 4 4 4 7 7 2 3 4 4 7 6 3 6 7 6 6 2 2 2 5 6 2 5 6 9 8 1 1 6 5 4 5 6 6 6 7 13 25 33 35 37 38 37 39 40 41 41
7 8 10 11 12 12 11 9 5 5 7 8 8 7 4 4 3 3 2 4 2 10 16 13 14 20 20 20 19 7 6 14 20 25 24 19 14 5 4 5 4 4 1 1 6 5 1 4 4 4 7 7 5 4 4 4 5 4 3 3 5 7 6 6 7 8 6 4 3 5 5 5 5 5 6 6 8 15 26 32 31 34 37 38 38 38 39 40
7 8 10 11 12 11 9 5 2 4 6 6 7 7 4 3 3 3 2 4 3 8 12 11 10 15 17 21 21 5 3 8 15 24 23 17 15 6 3 5 4 4 0 2 3 2 1 4 4 4 4 7 7 4 2 3 4 6 2 4 3 5 6 5 4 3 3 4 5 4 4 4 6 6 5 5 9 15 21 21 23 29 32 33 34 35 37 39
6 8 10 10 11 9 6 2 1 3 5 6 8 7 4 3 2 2 2 5 4 5 8 9 8 11 13 18 22 7 2 10 11 21 25 15 13 8 5 4 4 4 1 1 4 1 1 6 7 5 5 6 7 5 2 3 3 4 1 1 5 6 5 2 2 1 1 3 5 4 3 2 5 4 5 7 10 14 16 15 18 24 27 29 32 34 36 37
6 8 9 10 10 8 3 1 1 3 7 8 9 6 3 3 0 1 4 5 4 5 5 7 6 10 11 12 19 13 4 10 8 15 24 17 11 10 8 3 3 1 3 3 3 1 1 5 5 4 5 5 4 4 3 3 1 6 4 5 5 3 2 3 4 1 1 2 4 5 2 1 6 4 5 8 10 11 13 11 13 18 24 27 29 32 35 36
7 7 8 9 10 6 1 2 3 5 9 10 8 5 2 2 0 2 6 3 4 4 3 7 6 12 16 9 15 17 10 11 9 11 21 21 13 8 6 3 4 3 4 6 4 2 1 1 1 1 4 4 4 5 3 5 1 8 7 5 2 3 2 3 4 2 2 4 3 6 2 1 5 5 6 7 7 8 8 7 9 15 22 25 28 31 33 36
7 7 8 8 8 6 5 5 6 7 9 9 6 3 2 3 2 5 5 0 2 4 5 7 5 11 18 9 9 17 10 9 12 13 18 23 23 17 8 3 5 4 2 6 5 1 1 2 2 1 1 3 5 5 2 5 5 8 7 5 3 4 3 3 2 3 4 4 5 7 1 2 2 3 3 4 3 3 4 4 7 13 21 25 28 31 32 35
8 8 8 8 7 7 7 6 6 7 8 7 4 3 2 3 4 7 2 2 1 5 5 6 4 7 12 5 4 12 7 7 14 13 12 15 22 23 13 5 7 6 4 6 6 5 3 1 1 1 2 3 3 4 2 2 4 5 5 5 5 5 4 4 5 4 4 5 7 5 2 1 3 3 2 1 3 4 3 4 6 11 18 23 27 30 32 34
8 8 8 7 7 6 6 6 7 7 7 6 3 2 1 4 5 3 1 4 3 4 3 2 4 5 6 3 3 7 4 5 10 8 5 5 7 11 10 4 3 5 6 5 5 6 3 1 4 3 1 3 4 4 5 4 5 6 5 6 6 5 5 5 5 3 0 6 5 2 1 2 4 3 4 5 4 4 2 5 8 13 17 23 27 29 31 35
8 8 7 6 6 6 6 7 7 6 5 4 2 2 5 6 2 2 3 3 2 3 2 2 4 4 4 4 5 5 3 3 7 6 2 2 4 4 4 5 3 1 3 3 3 6 4 5 7 4 1 4 4 4 5 4 5 6 4 4 5 3 5 5 5 3 4 8 4 1 2 4 2 2 5 6 4 1 5 10 12 17 19 23 28 30 33 38
7 6 6 6 6 7 6 6 6 4 3 2 1 4 8 5 1 1 2 3 2 3 2 1 5 5 3 4 3 4 3 2 5 6 4 3 5 4 4 7 8 3 2 2 2 4 4 5 6 3 3 5 5 2 1 2 2 2 1 3 4 2 1 3 4 4 7 9 6 3 2 4 3 1 7 7 4 4 9 12 13 19 23 24 29 31 34 38
5 4 3 4 5 5 5 4 4 2 1 1 4 7 7 2 3 0 1 4 2 3 3 2 3 4 4 3 3 3 2 2 3 4 5 4 3 3 3 5 7 4 3 4 1 1 3 4 6 3 3 3 3 1 1 2 2 2 2 4 3 1 3 2 4 5 4 5 5 4 3 3 0 1 5 5 2 4 10 14 14 19 26 29 30 32 35 38
4 1 1 2 3 3 4 4 3 1 2 5 7 7 3 2 1 1 1 3 1 2 4 4 5 5 5 5 4 5 2 2 3 4 4 3 1 1 1 2 4 4 2 3 0 1 3 5 6 5 4 1 2 3 1 2 2 1 3 2 3 3 6 2 4 2 1 3 4 3 4 2 1 1 2 1 3 7 11 17 19 24 32 35 33 34 37 39
6 5 5 5 5 6 5 1 4 2 5 9 9 4 2 1 1 2 2 2 1 1 3 3 3 4 3 3 4 7 6 3 4 4 3 2 1 1 2 1 2 3 1 2 1 1 1 4 6 4 4 4 2 3 2 1 1 2 2 4 2 1 4 3 2 3 4 4 4 4 9 8 3 3 3 6 10 12 13 17 21 29 36 36 35 37 41 42
9 11 13 12 10 9 8 10 8 6 11 14 8 3 2 0 0 2 2 1 2 1 5 3 1 2 0 1 4 7 5 4 5 4 2 2 2 1 2 2 1 4 4 1 1 0 3 3 7 1 3 8 4 3 3 2 1 3 1 2 2 2 3 2 1 4 4 5 5 5 11 10 4 3 5 9 11 12 14 15 17 23 28 28 31 38 43 46
7 10 14 15 12 10 7 7 7 7 12 10 3 2 1 1 1 1 2 2 1 2 5 1 1 2 1 1 1 5 3 3 3 3 2 2 2 1 2 1 2 6 6 1 2 1 2 1 5 4 4 7 5 4 4 5 3 3 2 2 2 2 4 3 2 1 2 5 5 5 8 7 1 2 2 4 6 9 12 12 12 16 21 25 32 40 45 47
4 6 10 11 10 12 8 6 10 14 10 4 3 2 0 1 1 2 3 2 1 2 2 1 1 2 2 0 1 2 2 1 1 2 1 1 2 2 3 2 2 5 5 2 2 1 1 2 3 7 6 5 4 2 2 3 4 4 4 4 5 2 1 2 1 1 0 4 4 5 9 7 1 2 2 3 4 7 8 9 11 18 26 31 37 41 43 45
5 5 8 11 6 6 7 11 14 13 6 2 2 2 0 1 0 3 4 2 2 3 2 3 3 1 0 1 1 1 1 1 0 0 1 1 2 2 3 2 2 5 4 2 3 2 1 1 2 5 6 4 5 4 1 0 1 3 3 3 3 3 2 3 4 2 1 2 4 6 10 8 0 2 2 2 4 8 11 14 18 25 34 37 40 41 42 44
8 4 7 12 9 5 10 13 10 6 4 4 3 2 1 1 1 3 4 2 2 3 3 3 2 2 2 0 1 1 1 1 1 1 0 1 1 2 2 4 4 3 2 1 1 1 0 2 0 4 4 5 10 4 4 4 6 8 4 3 2 2 5 1 6 5 2 4 4 4 8 8 1 2 4 3 6 12 19 25 27 32 38 42 44 48 51 52
14 9 6 8 9 9 12 10 7 5 5 3 2 3 3 2 2 3 3 3 2 1 2 2 1 1 1 1 0 1 1 1 2 1 0 2 1 1 2 6 6 4 3 1 1 2 1 2 2 5 5 6 9 4 6 5 6 7 5 5 3 2 1 4 4 2 3 4 2 2 7 7 1 2 8 12 12 18 26 33 35 37 42 47 50 54 56 56
22 20 16 8 3 4 8 6 2 3 2 2 3 4 3 3 4 3 2 3 3 1 2 1 0 1 0 1 1 1 1 1 1 1 1 1 1 2 3 7 6 4 3 1 1 4 3 1 3 4 7 8 8 6 4 2 3 4 3 3 3 3 2 1 1 4 2 3 6 5 8 9 5 7 17 19 15 18 28 37 41 41 43 47 51 53 53 55
15 17 22 19 11 10 11 9 9 6 3 3 4 3 3 3 4 5 3 3 4 3 2 1 1 1 1 1 1 2 1 2 1 2 2 0 1 2 4 6 4 4 3 1 1 3 1 1 3 4 5 7 7 7 8 7 5 1 3 4 4 5 6 3 2 2 2 6 10 6 8 13 14 16 22 18 12 16 27 38 44 45 45 48 51 51 52 53
6 5 11 17 20 22 19 13 11 8 4 4 4 2 2 2 2 5 4 3 4 4 2 2 2 1 3 3 3 3 2 2 2 2 2 2 3 2 4 4 4 4 3 2 2 2 2 0 2 4 3 6 6 9 9 6 6 5 3 6 4 3 5 4 1 2 5 9 10 7 11 18 20 22 22 16 14 18 22 30 39 44 47 51 52 52 53 52
7 2 2 5 11 16 16 11 10 7 4 3 3 1 2 2 2 3 3 2 4 3 2 3 4 2 2 4 4 3 4 3 3 2 1 1 4 2 3 3 3 4 3 3 3 2 3 2 2 4 6 8 7 11 12 6 4 5 3 5 4 2 3 4 2 5 8 8 8 11 17 21 22 24 20 16 16 17 20 29 38 43 49 50 50 51 52 52
6 4 4 5 3 4 6 8 10 11 7 4 3 1 2 3 2 1 2 2 3 4 2 2 5 5 1 1 3 3 6 6 4 3 2 2 3 4 4 2 3 5 5 2 3 3 4 1 2 3 6 9 9 12 10 4 2 1 2 4 5 4 5 4 4 8 8 8 12 18 23 22 22 21 16 16 20 21 27 39 45 47 50 49 49 50 50 51
13 10 8 8 7 5 5 3 7 12 10 5 3 2 2 3 2 1 2 3 3 5 5 3 5 6 1 1 2 2 3 3 4 4 1 2 4 3 3 1 2 6 6 2 2 3 2 2 3 2 5 10 9 8 5 3 3 2 2 4 4 4 4 4 6 9 10 13 16 20 24 23 18 14 14 23 34 38 41 48 50 49 50 51 51 52 51 49
12 10 12 16 14 9 7 3 4 7 6 5 4 2 1 3 1 2 1 2 2 4 6 3 6 6 1 3 2 1 1 3 4 5 2 1 4 1 0 0 1 5 7 3 1 4 4 3 1 2 5 9 5 2 3 2 4 3 2 5 7 8 8 7 7 8 11 15 18 21 24 19 13 15 23 35 43 42 40 44 46 48 52 52 51 52 50 43
16 17 18 19 10 8 6 4 3 5 4 4 2 1 1 2 1 1 0 1 2 1 3 2 5 4 2 2 1 2 5 3 6 9 7 4 4 3 1 1 1 4 6 3 3 4 5 4 3 4 5 9 6 8 10 5 4 4 3 6 9 11 12 10 8 8 12 17 21 23 19 12 12 20 29 37 39 34 35 40 45 50 55 55 51 49 43 38
20 18 14 13 7 6 5 4 4 5 2 2 1 2 0 1 1 1 1 2 1 2 2 2 3 3 3 4 5 6 9 9 10 13 11 10 10 7 5 4 1 2 2 2 2 2 3 3 3 3 4 8 9 13 14 6 4 3 3 2 7 13 16 14 10 10 14 15 16 17 13 12 19 24 25 27 28 28 34 44 48 51 55 56 52 44 38 44
Wind_Direction
176 168 163 166 167 155 134 118 115 123 131 132 120 349 346 354 360 360 359 9 17 23 33 40 46 49 42 27 19 15 12 15 16 22 29 23 12 4 355 345 341 335 332 328 312 301 292 291 287 267 251 294 3 21 89 102 133 130 102 109 250 210 202 194 191 206 203 280 283 309 312 249 288 311 293 290 266 263 272 269 265 259 261 265 268 270 270 272
170 162 160 160 154 143 124 119 118 112 103 92 13 349 351 356 2 3 6 18 29 39 45 47 45 38 22 10 3 356 349 3 20 30 29 15 2 359 354 345 344 343 341 335 330 329 327 332 328 308 267 222 28 41 150 130 129 114 109 141 241 204 214 214 208 234 241 286 289 301 313 259 269 301 310 292 273 286 287 280 276 268 273 277 278 275 270 271
163 157 155 151 145 131 119 120 111 93 77 49 8 0 1 5 9 9 14 25 48 58 48 38 29 21 11 5 1 356 346 0 27 28 21 8 358 353 346 339 340 345 349 345 343 352 2 8 12 10 5 112 52 121 136 83 120 109 104 220 249 217 253 266 256 267 264 280 295 302 307 279 284 294 283 276 300 305 276 277 277 270 286 299 301 293 279 275
155 153 149 141 135 123 122 119 99 78 60 39 20 12 12 14 15 16 19 34 75 68 36 24 19 14 4 358 355 354 353 45 26 21 13 4 360 355 350 340 332 344 351 350 349 351 1 10 7 11 30 58 43 92 98 28 20 130 141 198 236 202 281 282 282 290 281 281 283 293 311 302 304 298 261 271 319 300 272 280 283 281 297 308 310 307 294 284
150 147 138 134 128 121 125 116 91 70 55 40 27 18 15 14 12 21 24 53 101 58 22 19 14 6 354 352 351 350 357 53 14 16 11 5 5 3 3 356 345 347 356 356 355 354 353 359 1 11 27 39 29 40 45 26 50 220 214 218 237 180 252 288 301 308 297 292 287 295 308 301 310 301 269 257 233 264 285 293 296 299 302 304 305 304 297 289
142 136 131 129 121 118 118 105 86 68 52 37 24 14 11 9 12 33 39 79 102 26 10 10 6 359 348 347 349 359 34 81 8 13 10 5 8 8 9 4 0 359 1 359 355 359 3 3 12 22 28 40 31 44 8 356 48 258 269 277 290 226 241 294 306 304 301 293 287 292 295 298 312 306 288 254 244 272 294 298 298 301 304 304 303 302 298 292
134 131 129 123 117 114 104 93 80 65 49 35 23 14 11 11 28 53 42 73 64 11 5 4 5 359 350 349 1 29 57 62 14 10 4 4 5 6 11 6 4 2 359 1 1 6 12 20 33 37 45 41 20 175 342 325 209 159 261 292 314 274 266 298 305 304 303 290 283 288 292 296 294 299 302 278 278 292 304 307 308 311 314 314 310 309 306 301
131 128 124 119 114 108 99 90 76 62 49 37 29 24 22 32 63 68 62 87 57 15 4 4 8 6 1 4 42 47 48 36 11 5 357 358 0 5 15 12 10 11 10 16 16 16 19 30 34 30 57 44 256 201 331 327 354 145 238 290 296 294 297 314 323 324 320 304 297 297 288 285 285 289 283 287 301 317 322 319 319 317 315 316 316 317 314 309
128 124 120 116 112 106 98 86 72 61 48 39 35 31 38 57 71 82 92 92 41 10 7 10 12 17 16 20 74 50 34 20 12 7 358 355 354 4 17 21 27 26 30 32 26 30 34 39 29 15 79 179 167 235 3 6 340 195 258 299 293 304 324 338 341 353 344 325 321 315 293 293 296 300 278 298 326 335 327 321 321 318 317 320 320 320 318 314
125 121 118 115 112 107 95 81 69 56 45 38 32 32 52 71 83 98 98 65 20 13 16 15 18 30 28 41 77 58 26 22 15 8 4 355 350 5 17 29 35 29 40 45 43 47 42 37 16 10 90 103 109 340 16 45 311 273 298 294 303 317 349 0 355 5 356 343 353 331 288 300 293 249 284 321 339 333 326 328 336 337 336 339 335 331 326 321
122 118 117 116 113 104 89 77 63 50 43 35 33 43 66 81 93 101 74 22 14 14 17 17 18 28 33 48 64 54 18 18 7 2 5 357 357 14 23 34 39 38 48 50 50 47 40 46 36 41 82 338 345 329 102 8 316 311 333 305 324 347 23 13 5 0 359 358 352 331 283 319 306 183 288 325 336 335 337 347 5 14 16 18 19 15 8 356
120 117 119 118 111 98 81 68 53 43 37 40 53 61 72 80 86 79 33 16 9 7 12 13 15 24 43 49 50 36 17 13 358 358 5 359 7 21 28 41 44 43 47 44 44 41 42 53 42 45 40 342 327 36 9 353 335 327 19 352 330 1 33 9 3 352 360 4 346 340 307 345 313 232 311 334 340 344 0 18 31 41 49 51 51 45 43 38
123 123 123 118 104 88 72 59 50 44 44 62 72 66 65 64 63 55 31 18 11 11 15 14 20 40 58 50 39 31 22 11 356 358 14 8 13 24 28 49 52 36 35 33 35 35 48 53 37 45 38 20 309 19 341 345 355 335 28 56 341 5 6 357 2 352 6 12 350 358 338 326 291 292 327 346 348 356 21 34 42 52 59 59 58 54 52 49
126 125 121 110 94 80 67 58 53 52 63 74 64 50 46 48 62 58 44 31 22 19 18 20 27 45 61 55 36 30 21 9 1 11 49 37 28 32 24 44 48 25 25 29 28 34 53 55 40 47 34 20 11 335 352 0 16 350 352 40 26 16 309 333 357 4 16 353 351 14 182 298 299 312 339 352 356 8 20 32 44 52 59 60 61 58 56 55
126 123 116 104 92 78 67 60 57 62 62 45 26 17 17 30 54 60 50 40 38 37 29 29 42 57 61 48 33 25 19 19 17 23 45 56 56 49 37 51 40 30 35 30 28 39 52 58 43 44 25 18 32 55 10 359 14 19 9 351 354 20 308 319 352 42 26 311 349 32 221 289 290 308 338 353 359 8 16 31 46 52 59 62 61 60 59 57
129 126 119 109 96 80 68 62 62 59 41 32 35 26 12 0 19 83 62 36 41 40 30 34 61 74 58 28 19 18 18 21 21 22 32 43 43 40 57 70 36 42 65 49 42 52 52 59 52 44 30 24 30 55 45 15 353 11 39 325 307 349 331 321 330 49 27 316 349 40 218 287 284 306 331 351 359 359 14 27 41 52 57 60 58 55 54 50
139 136 130 116 97 77 60 57 57 56 65 73 73 66 59 46 28 340 307 347 2 22 30 38 77 86 54 25 10 8 12 18 20 23 31 39 39 43 60 55 41 70 87 63 51 59 55 51 57 39 34 37 13 34 59 19 335 331 21 4 292 308 310 318 311 353 20 23 338 16 197 260 275 300 321 344 358 351 6 14 25 49 51 54 53 49 48 43
149 144 136 114 91 66 56 61 71 89 93 85 81 79 75 68 62 60 54 54 54 47 41 36 53 108 42 13 5 358 6 19 20 22 32 45 45 46 44 35 73 106 85 60 40 38 45 41 57 55 27 32 10 40 71 306 270 277 321 334 309 304 266 285 289 332 11 1 321 350 298 285 296 305 317 337 352 345 353 0 9 38 46 49 48 46 45 43
155 149 136 108 79 62 69 78 90 101 95 86 85 86 82 74 69 65 67 73 69 70 50 23 36 107 299 357 7 7 19 26 22 26 38 51 48 46 50 59 86 96 65 52 22 23 35 34 44 43 1 356 351 63 140 217 210 229 256 244 282 299 281 272 267 303 4 337 313 340 314 295 305 308 310 323 339 340 342 358 10 27 41 43 43 42 41 42
162 154 136 107 82 77 89 93 96 99 85 85 90 89 93 77 65 59 60 64 66 70 64 40 41 52 347 359 14 20 30 32 28 31 36 36 46 51 52 67 78 64 51 42 351 14 45 55 40 3 303 302 291 239 216 233 207 215 206 236 268 273 285 289 273 292 0 343 293 329 319 292 292 292 288 307 326 329 330 347 356 7 26 31 33 33 32 36
166 158 141 116 103 99 104 105 98 92 78 76 85 82 80 71 76 71 64 65 64 63 55 45 41 36 22 8 15 20 25 31 32 36 35 29 39 49 38 50 67 48 14 290 301 2 53 59 12 298 263 267 290 277 221 173 125 134 179 272 296 260 275 295 288 301 18 26 285 349 339 303 295 292 287 304 318 316 325 335 335 345 6 15 20 20 19 25
158 152 145 128 126 120 118 117 105 94 80 73 83 82 77 83 96 97 87 79 61 51 44 37 36 33 26 18 13 17 24 26 24 28 29 30 48 62 46 52 66 35 339 356 43 4 40 45 327 304 271 186 65 34 44 100 110 78 41 316 318 305 284 302 299 291 16 45 280 332 340 302 299 295 288 295 287 294 314 316 325 345 2 14 20 19 19 27
147 148 148 141 137 134 130 124 110 92 74 66 72 74 77 89 101 97 91 98 63 40 33 30 29 26 23 19 5 13 32 32 12 12 15 22 43 52 51 57 62 35 3 30 72 55 50 10 321 340 5 75 73 16 33 46 60 60 355 10 319 323 339 311 317 328 331 217 265 306 310 294 311 319 302 310 313 324 343 357 12 22 24 27 31 31 31 36
135 133 142 144 142 143 138 129 108 76 57 51 55 58 70 73 91 115 87 102 76 28 24 26 22 20 17 10 2 10 40 38 16 6 8 15 29 35 43 51 55 49 15 40 76 88 105 286 321 23 27 55 61 3 36 33 1 303 242 342 308 306 280 250 286 320 327 4 307 324 328 304 336 352 318 324 354 6 16 23 27 32 36 37 38 37 37 38
126 129 141 147 148 148 139 129 97 57 43 40 40 33 46 48 55 132 93 86 56 1 12 16 14 14 8 4 4 7 60 40 22 7 4 14 20 24 47 35 40 39 344 110 68 71 66 309 335 28 21 38 57 20 31 38 357 325 257 229 269 293 285 270 293 324 358 5 333 17 17 301 314 347 305 315 6 21 29 32 30 30 34 35 33 31 31 31
133 141 149 151 154 149 138 129 76 32 26 27 19 15 29 29 55 112 90 69 25 340 359 4 5 7 3 2 1 8 98 24 15 9 7 14 15 25 52 16 36 42 210 168 67 76 28 356 35 70 37 24 40 30 358 91 36 347 276 204 254 300 297 298 323 357 19 311 304 58 80 281 312 341 313 336 28 29 28 33 31 29 29 28 26 24 23 22
147 153 159 160 159 152 139 128 30 8 9 5 357 1 8 8 66 127 41 46 11 331 352 354 355 359 0 5 8 43 105 335 355 12 12 14 13 38 63 3 34 37 335 133 44 40 334 4 24 39 39 31 25 358 277 130 54 316 246 17 323 314 297 278 94 85 259 285 322 20 96 253 296 310 332 7 41 36 25 24 24 25 25 24 22 20 18 16
155 163 170 169 166 160 137 49 346 355 358 352 350 355 356 8 141 183 77 75 339 329 353 344 343 356 0 16 27 56 61 348 5 10 13 25 21 42 64 39 134 75 352 91 74 346 352 12 4 1 21 24 0 320 261 145 74 270 273 343 320 298 261 162 120 119 279 14 331 321 34 317 278 291 357 17 42 31 18 14 8 14 20 20 18 15 13 11
163 170 176 177 178 182 209 347 339 343 348 347 352 359 4 19 248 62 74 107 317 336 344 343 342 349 356 17 31 35 35 24 26 3 20 38 33 46 77 36 128 143 12 73 111 266 307 49 248 112 48 0 303 290 233 149 246 285 303 340 31 83 66 93 91 96 44 26 296 279 350 14 286 314 351 11 41 15 355 357 351 5 14 15 14 11 8 7
179 180 184 191 198 219 256 291 312 323 336 342 350 4 33 32 64 65 48 212 322 335 323 352 346 342 357 11 16 13 20 23 11 5 25 38 37 47 78 28 48 98 11 36 65 320 273 203 223 110 67 288 289 302 214 174 268 312 339 341 12 45 41 54 56 86 52 351 273 252 259 71 290 312 4 7 17 313 306 334 345 3 11 11 10 7 5 3
194 195 198 211 225 247 263 279 302 314 329 336 337 343 10 19 59 91 73 263 307 336 342 5 347 357 17 40 0 355 360 359 2 14 20 24 31 35 41 16 11 33 10 5 19 360 3 74 297 327 316 306 317 324 321 208 288 345 13 348 353 356 7 23 355 35 55 302 271 245 223 118 249 244 131 162 256 255 272 344 354 2 7 6 5 4 2 360
203 208 213 227 241 258 269 278 295 307 323 341 346 330 32 34 31 94 266 311 331 347 4 347 334 5 14 26 6 339 336 349 0 29 34 12 34 33 37 41 343 11 15 354 351 354 1 300 308 318 349 358 356 340 346 354 357 15 20 15 20 355 354 3 335 358 232 268 266 217 268 270 226 198 156 175 218 248 305 12 5 1 2 4 2 360 358 356
207 212 222 240 249 264 277 285 300 305 313 340 357 18 76 76 41 235 272 328 349 348 359 295 320 345 340 4 6 331 342 359 352 18 41 50 62 38 36 41 16 27 14 349 353 358 340 311 339 5 358 8 39 24 343 329 359 11 12 31 40 23 357 330 306 324 299 279 271 156 291 282 260 153 167 177 181 157 25 19 10 6 3 1 0 357 355 353
202 211 230 248 260 273 284 290 294 297 310 332 61 60 64 80 185 239 292 286 289 344 14 316 320 343 31 39 344 324 13 354 348 16 4 22 47 14 356 8 14 42 58 36 27 8 358 321 341 18 327 346 35 60 265 252 357 341 201 106 74 82 20 282 263 282 299 297 302 330 296 257 277 148 164 160 128 66 24 10 6 9 4 358 358 356 352 350
182 202 231 264 285 287 302 296 280 299 279 158 78 62 72 128 238 120 284 273 299 331 320 333 4 19 16 347 325 358 49 320 349 41 20 26 59 11 355 343 353 20 61 46 340 350 34 278 276 302 289 314 16 307 194 99 17 279 157 84 23 236 173 210 230 229 273 303 302 302 261 220 333 59 159 150 108 34 12 4 4 5 2 359 357 354 350 346
124 131 355 335 320 317 320 281 250 333 200 144 79 56 106 179 237 163 258 296 319 321 316 340 32 40 349 321 334 357 14 298 349 41 33 38 122 18 9 280 329 14 72 87 348 346 30 289 295 345 322 183 72 304 270 64 340 318 47 359 281 190 147 167 278 273 18 300 279 298 287 280 51 293 224 179 341 356 3 1 0 359 359 358 355 351 346 341
87 72 67 60 57 39 20 104 162 148 118 104 80 73 183 173 156 201 284 323 273 308 43 34 24 28 341 318 323 330 344 347 358 29 30 16 67 50 17 287 306 3 1 137 179 236 90 298 307 358 324 301 2 326 299 64 90 72 9 291 263 112 105 109 274 329 357 276 272 315 291 289 296 273 314 2 354 357 358 356 357 357 356 354 348 344 340 336
77 69 65 55 53 48 60 90 112 133 101 80 71 107 149 242 240 240 286 335 270 358 64 73 17 51 100 319 314 312 341 3 359 22 31 356 25 86 35 345 326 0 350 130 134 37 111 312 298 287 288 299 334 32 350 338 85 90 298 268 58 16 314 15 343 312 317 282 286 299 284 286 274 258 350 2 353 355 352 352 357 353 350 344 338 337 334 333
57 59 49 36 43 48 56 97 113 110 89 70 67 130 100 248 263 314 318 323 282 75 65 54 320 39 90 145 298 303 340 12 351 16 48 23 10 48 61 19 321 354 356 107 134 293 119 83 291 276 287 308 353 33 344 322 336 24 20 346 26 162 223 295 314 246 286 285 292 298 291 297 242 199 348 342 338 351 346 345 351 342 336 332 331 333 331 331
50 67 37 21 43 50 50 120 99 77 74 84 148 142 348 229 271 355 4 348 346 76 69 191 145 25 343 242 252 295 354 41 317 356 15 13 5 20 50 55 306 335 347 51 90 337 14 92 269 289 319 349 355 334 309 317 320 344 8 357 342 332 237 303 291 132 18 280 286 299 292 292 224 159 197 252 314 346 340 336 340 334 332 331 330 329 327 326
81 86 25 16 40 57 84 98 73 59 71 103 106 109 88 137 39 5 22 28 48 70 119 157 130 114 200 13 344 259 321 346 287 332 327 344 28 22 26 32 325 324 344 30 41 16 349 104 236 300 342 351 286 264 205 221 10 16 14 11 342 343 43 358 303 314 62 247 275 291 289 291 262 167 214 239 312 340 344 340 336 333 333 331 329 327 326 326
79 77 14 35 59 102 107 80 41 33 91 77 61 85 97 120 58 18 23 31 44 58 94 120 101 119 163 224 301 222 261 301 262 31 318 254 20 22 2 8 348 329 21 50 339 329 210 99 120 282 286 271 278 298 79 95 99 92 63 31 19 57 86 64 281 301 324 278 274 270 283 295 271 199 244 258 314 340 346 341 335 332 333 332 331 331 331 329
70 59 32 59 82 96 98 75 13 22 75 90 109 84 77 108 69 19 18 26 15 21 46 63 85 76 183 211 271 224 229 216 219 351 348 229 330 3 8 16 8 352 25 43 319 352 22 72 19 293 285 284 289 337 83 106 105 90 50 33 54 69 115 203 221 328 315 283 321 301 280 290 250 243 291 295 317 340 343 339 336 333 333 332 331 330 329 326
72 59 47 59 137 108 94 106 99 68 85 124 84 52 46 75 56 22 7 18 14 41 58 41 100 37 3 157 115 236 288 2 249 355 40 192 298 12 20 24 24 21 34 93 328 354 339 18 38 347 336 333 329 352 18 355 45 79 71 53 72 55 359 265 66 20 303 287 336 311 275 292 314 325 316 315 326 340 339 337 335 332 330 328 326 325 324 322
76 60 51 58 90 106 98 116 128 125 145 110 63 16 18 56 45 31 36 37 34 55 64 4 300 4 17 84 33 329 342 20 324 346 24 271 265 27 28 19 31 44 45 115 249 346 318 203 91 66 349 325 324 323 315 324 345 44 95 50 30 37 33 26 22 351 295 310 316 289 269 297 312 321 320 322 335 337 335 335 331 328 325 323 322 322 320 319
80 67 48 54 72 83 85 97 109 112 137 115 71 3 27 54 20 24 36 48 35 37 56 26 324 322 29 41 22 329 315 22 24 1 21 316 284 359 32 25 49 58 44 38 4 25 88 193 155 143 232 265 260 273 292 335 333 303 3 23 2 19 42 53 75 294 305 302 292 277 292 305 314 319 320 327 339 337 334 330 326 324 323 321 320 319 318 317
77 63 39 53 62 67 67 68 78 92 131 128 97 13 16 353 324 8 25 34 24 19 58 50 33 35 21 20 27 324 309 357 24 358 9 283 273 318 27 49 59 33 27 36 7 50 84 336 263 181 230 250 255 275 294 336 323 288 354 9 344 4 44 58 34 311 305 296 288 301 310 311 312 316 323 335 339 335 328 321 320 320 318 317 317 316 316 316
89 92 83 95 85 51 50 49 66 79 79 85 113 124 30 16 0 16 340 336 17 24 30 34 29 39 33 355 37 347 329 354 1 336 344 318 314 350 14 56 66 23 16 33 16 73 111 265 247 188 251 267 271 279 289 313 273 190 44 352 346 10 16 16 335 305 302 292 291 304 310 310 310 317 331 337 332 328 321 318 318 317 316 316 316 315 315 315
108 108 82 86 96 98 103 87 75 76 61 49 78 73 69 69 45 253 272 326 0 15 31 32 351 3 17 182 79 41 348 355 332 316 327 355 343 357 2 4 58 23 22 37 13 52 102 251 236 189 281 285 277 276 281 247 201 138 46 344 347 0 355 344 313 305 302 289 290 303 308 308 314 328 333 327 326 325 320 318 318 318 317 317 317 315 314 313
117 119 108 102 91 71 74 67 62 75 48 28 62 54 141 128 62 292 263 37 9 352 22 26 326 337 71 139 106 68 263 206 238 266 233 24 341 296 151 281 261 352 13 39 342 16 28 316 294 80 326 300 286 321 332 253 185 141 30 353 352 348 349 346 325 317 311 302 304 311 311 310 322 332 324 322 324 323 318 317 318 317 317 316 314 313 312 312
114 121 119 109 83 21 32 36 37 80 39 8 72 164 249 155 151 292 6 58 74 8 7 359 322 335 53 81 90 272 282 249 242 260 259 267 274 240 207 84 129 350 2 22 349 6 29 343 339 49 352 307 322 360 342 335 119 108 6 354 359 353 345 339 336 334 325 318 319 319 315 313 323 328 323 321 322 320 317 317 318 317 316 314 312 310 311 317
115 121 120 109 86 7 20 26 21 68 73 339 122 167 221 138 190 124 69 347 35 37 345 339 345 352 8 3 352 324 318 312 290 282 276 264 256 248 263 279 311 340 334 55 23 10 44 359 334 17 338 307 334 344 328 331 62 25 314 9 11 354 336 328 337 338 326 323 321 318 316 319 324 327 325 320 320 322 319 317 316 315 313 311 310 311 317 323